sat.trackr.live / text

‹ back to catalog

STARLINK-5109

NORAD 54002 · 2022-125AQ

PAYLOAD ACTIVE UNKNOWN

§ Identity

Operator
Country
US
Launch date
2022-10-05
Launch site
AFWTR
Launch vehicle
Mass (kg)
RCS (m²)

Purposes: comms

External: N2YO · Heavens-Above · Gunter

§ Orbital elements

Epoch: 2026-05-24T21:51:08.904672Z

Period
95.44 min
Inclination
53.2140°
Eccentricity
0.0001177
Mean motion
15.08832740 rev/d
Perigee alt
539.0 km
Apogee alt
540.6 km
Semi-major
6,917.9 km
B*
3.9741e-6
RAAN
221.6896°
Arg perigee
83.4750°
Mean anomaly
276.6376°
Rev number
20,111

§ Raw data

STARLINK-51091 54002U 22125AQ  26144.91051973 -.00000225  00000+0  39741-5 0  99932 54002  53.2140 221.6896 0001177  83.4750 276.6376 15.08832740201115

JSON: /api/v1/satellites/54002 · /tle

For live sub-satellite position, see the globe view (requires WebGL).

§ Visibility from observer

Set your observer location to see the next 7 days of passes ≥ 10°. The values pass through the URL so the page stays shareable.

No JS? Fill the form by hand. The geolocation button needs JavaScript.